SCP
0 0 0 0 0 0 0 0 0 0 0 0 0 0 0 0 0 0 0 0 0 0 0 0 0 0 0 0 0 0 0 0 0 0 0 0 0 0 0 0 0 0 0
0 0 0 0 0 0 0 0 0 0 0 0 0 0 0 0 0 0 0 0 0 0 0 0 0 0 0 -0 -0 -0 -0 0 0 0 0 0 0 0 0 0 0 0 0
0 0 0 0 0 0 0 0 0 0 0 0 0 0 0 0 0 0 0 0 0 0 0 0 0 0 0 -0 -0 -0 -0 -0 -0 0 0 0 0 0 0 0 0 0 0
0 0 0 0 0 0 0 0 0 0 0 0 0 0 0 0 0 0 0 0 0 0 0 0 0 0 0 -0 -0 0 -0 0 0 0 0 0 0 0 0 0 0 0 0
0 0 0 0 0 0 0 0 0 0 0 0 0 0 0 0 0 0 0 0 0 0 0 0 0 0 0 0 0 -0 -0 -0 0 0 0 0 0 0 0 0 0 0 0
0 0 0 0 0 0 0 0 0 0 0 0 0 0 0 0 0 0 0 0 0 0 0 0 0 0 0 0 0 0 0 0 0 0 0 0 0 0 0 0 0 0 0
0 0 0 0 0 0 0 0 0 0 0 0 0 0 0 0 0 0 0 0 0 0 0 0 0 0 0 0 0 0 0 0 0 0 0 0 0 0 0 0 0 0 0
0 0 0 0 0 0 0 0 0 0 0 0 0 0 0 0 0 0 0 0 0 0 0 0 0 0 0 0 0 0 0 0 0 0 0 0 0 0 0 0 0 0 0
0 0 0 0 0 0 0 0 0 0 0 0 0 0 0 0 0 0 0 0 0 0 0 0 0 0 0 0 0 0 0 0 0 0 0 0 0 0 0 0 0 0 0
0 0 0 0 0 0 0 0 0 0 0 0 0 0 0 0 0 0 0 0 0 0 0 0 0 0 0 0 0 0 0 0 0 0 0 0 0 0 0 0 0 0 0
0 0 0 0 0 0 0 0 0 0 0 0 0 0 0 0 0 0 0 0 0 0 0 0 0 0 0 0 0 0 0 0 0 0 0 0 0 0 0 0 0 0 0
0 0 0 0 0 0 0 0 0 0 0 0 0 0 0 0 0 0 0 0 0 0 0 0 0 0 0 0 0 0 0 0 0 0 0 0 0 0 0 0 0 0 0
0 0 0 0 0 0 0 0 0 0 0 0 0 0 0 0 0 0 0 0 0 0 0 0 0 0 0 0 0 0 0 0 0 0 0 0 0 0 0 0 0 0 0
0 0 0 0 0 0 0 0 0 0 0 0 0 0 0 0 0 0 0 0 0 0 0 0 0 0 0 0 0 0 0 0 0 0 0 0 0 0 0 0 0 0 0
0 0 0 0 0 0 0 0 0 0 0 0 0 0 0 0 0 0 0 0 0 0 0 0 0 0 0 0 0 0 0 0 0 0 0 0 0 0 0 0 0 0 0
0 0 0 0 0 0 0 0 0 0 0 0 0 0 0 0 0 0 0 0 0 0 0 0 0 0 0 0 0 0 0 0 0 0 0 0 0 0 0 0 0 0 0
0 0 0 0 0 0 0 0 0 0 0 0 0 0 0 0 0 0 0 0 0 0 0 0 0 0 0 0 0 0 0 0 0 0 0 0 0 0 0 0 0 0 0
0 0 0 0 0 0 0 0 0 0 0 0 0 0 0 0 0 0 0 0 0 0 0 0 0 0 0 0 0 0 0 0 0 0 0 0 0 0 0 0 0 0 0
0 0 0 0 0 0 0 0 0 0 0 0 0 0 0 0 0 0 0 0 0 0 0 0 0 0 0 0 0 0 0 0 0 0 0 0 0 0 0 0 0 0 0
0 0 0 0 0 0 0 0 0 0 0 0 0 0 0 0 0 0 0 0 0 0 0 0 0 0 0 0 0 0 0 0 0 0 0 0 0 0 0 0 0 0 0
0 0 0 0 0 0 0 0 0 0 0 0 0 0 0 0 0 0 0 0 0 0 0 0 0 0 0 0 0 0 0 0 0 0 0 0 0 0 0 0 0 0 0
0 0 0 0 0 0 0 0 0 0 0 0 0 0 0 0 0 0 0 0 0 0 0 0 0 0 0 0 0 0 0 0 0 0 0 0 0 0 0 0 0 0 0
0 0 0 0 0 0 0 0 0 0 0 0 0 0 0 0 0 0 0 0 0 0 0 0 0 0 0 0 0 0 0 0 0 0 0 0 0 0 0 0 0 0 0
0 0 0 0 0 0 0 0 0 0 0 0 0 0 0 0 0 0 0 0 0 0 0 0 0 0 0 0 0 0 0 0 0 0 0 0 0 0 0 0 0 0 0
0 0 0 0 0 0 0 0 0 0 0 0 0 0 0 0 0 0 0 0 0 0 0 0 0 0 0 0 0 0 0 0 0 0 0 0 0 0 0 0 0 0 0
0 0 0 0 0 0 0 0 0 0 0 0 0 0 0 0 0 0 0 0 0 0 0 0 0 0 0 0 0 0 0 0 0 0 0 0 0 0 0 0 0 0 0
Wind_Speed_500mb
5 7 9 13 13 10 15 20 7 3 4 2 6 6 20 20 21 16 13 12 8 6 5 3 7 12 12 13 16 16 14 11 11 14 17 21 27 31 35 39 43 45 47
8 9 11 13 13 14 19 20 6 5 2 5 3 7 18 18 16 15 11 9 9 9 5 7 14 14 13 15 15 17 14 12 10 14 16 18 22 25 30 33 36 38 42
11 12 13 16 15 17 19 18 5 4 5 4 6 5 8 15 16 14 9 8 5 4 10 12 16 13 12 13 13 14 14 15 19 21 21 24 23 23 24 29 32 35 38
7 13 14 15 14 18 16 14 3 2 2 2 10 8 11 14 14 10 9 9 9 10 12 12 11 11 13 13 15 18 20 21 23 24 23 24 25 27 25 25 27 32 35
8 9 11 10 9 14 12 12 3 2 2 5 7 14 16 15 13 12 12 10 8 10 14 16 19 20 22 24 26 27 28 28 29 30 30 30 28 29 31 31 30 30 32
15 13 12 10 9 7 6 6 9 2 3 3 2 17 19 17 17 15 8 6 11 16 23 27 28 30 32 34 34 36 37 38 38 39 38 40 39 34 32 33 35 35 37
17 14 13 10 7 5 4 1 5 4 6 3 3 6 19 20 21 22 18 16 19 26 26 28 32 38 40 41 41 42 42 44 46 46 45 46 45 45 41 38 35 36 41
19 14 12 10 7 6 5 6 2 2 3 4 1 6 6 11 23 24 26 29 27 23 22 33 39 41 42 42 43 44 47 50 51 52 52 48 48 49 49 47 45 44 43
22 18 13 11 9 8 9 8 5 4 1 3 3 2 6 8 10 20 24 21 24 24 29 26 26 28 31 32 35 38 41 42 44 47 49 52 54 53 55 57 56 52 49
19 20 18 15 12 12 12 11 10 9 6 6 9 10 13 14 13 18 17 20 28 23 20 16 21 28 34 37 39 40 43 45 47 49 51 55 57 58 60 60 61 63 59
22 22 22 21 18 16 16 16 13 12 11 11 13 16 18 21 24 26 32 21 24 18 20 23 29 33 39 39 40 43 46 51 55 57 60 62 64 66 67 67 64 59 60
23 23 24 27 26 21 18 16 15 12 14 16 20 23 24 23 25 25 31 32 29 28 25 28 24 24 31 34 37 40 42 46 48 52 55 59 63 66 69 71 73 73 65
26 26 27 27 30 28 23 22 20 23 25 25 31 31 33 33 32 31 35 36 37 32 24 24 20 22 26 34 38 40 42 43 45 48 50 52 55 60 65 69 73 75 73
31 28 28 26 29 32 31 29 27 28 33 34 30 38 41 39 39 40 40 37 34 32 29 24 21 22 29 38 44 46 47 47 48 50 52 55 56 58 62 66 70 75 79
35 37 30 29 28 29 31 30 31 35 38 35 38 40 41 39 43 43 39 40 31 38 35 25 18 25 35 44 49 49 47 47 47 48 52 57 61 63 66 69 71 73 75
36 34 33 32 32 32 34 36 35 38 39 39 40 39 39 43 43 40 38 37 34 34 41 29 28 34 44 48 49 45 43 48 51 52 53 59 62 63 64 70 73 77 79
34 37 34 33 34 34 41 40 40 40 41 39 39 42 45 42 39 36 38 33 32 32 41 39 37 37 49 49 48 47 50 53 52 59 55 57 57 57 64 71 79 82 82
34 34 34 36 39 39 40 40 43 39 39 38 41 43 39 37 37 39 38 38 34 36 41 47 41 42 44 50 50 53 54 53 58 58 59 64 58 60 62 68 71 79 80
28 32 32 36 32 34 40 43 40 40 39 43 40 35 33 33 34 33 39 37 36 39 43 48 52 45 49 52 51 52 56 59 53 55 62 63 60 64 72 75 71 66 66
22 22 27 33 37 39 41 39 40 38 35 38 34 29 27 28 29 32 35 39 41 43 43 46 47 45 42 43 46 47 51 50 54 53 57 56 64 74 68 63 55 57 56
24 27 28 30 40 44 38 33 37 37 38 36 30 26 28 28 29 32 36 37 41 43 43 45 47 43 44 41 45 47 52 54 56 53 42 47 66 70 51 50 46 39 39
41 31 36 39 38 37 33 34 35 38 36 33 33 35 37 38 38 41 42 46 48 50 46 45 46 46 49 45 45 47 51 54 60 48 41 64 58 56 44 41 40 30 35
25 26 32 34 24 31 32 32 34 38 37 38 39 41 43 45 47 48 50 50 48 47 47 46 51 53 50 55 48 56 50 53 58 58 47 62 51 45 42 40 38 38 44
11 18 23 27 32 34 33 33 35 41 45 44 43 46 53 55 55 52 54 53 49 47 44 46 53 56 54 50 55 51 53 61 57 50 38 62 42 46 47 47 40 44 46
20 21 25 31 36 37 34 33 36 45 49 50 51 54 57 55 54 51 57 57 51 50 36 40 43 48 48 50 46 46 44 43 52 51 45 40 44 62 61 50 43 52 48
24 24 28 29 31 35 30 31 35 43 53 56 59 56 48 48 50 54 58 59 60 56 51 51 49 51 49 48 42 47 46 39 44 41 26 47 61 57 54 67 56 42 37
Wind_Direction_500mb
52 21 7 8 1 354 344 344 337 240 240 282 357 122 168 169 178 172 172 198 227 242 251 294 308 321 324 316 329 327 317 299 297 294 288 285 277 270 265 261 259 257 255
36 18 22 12 7 3 355 359 42 113 177 194 149 103 172 169 177 189 190 208 255 261 244 263 288 294 308 313 318 322 332 322 302 308 302 297 290 281 274 270 267 265 263
11 5 4 4 353 347 350 356 35 73 58 202 199 178 164 183 180 181 185 196 239 240 233 262 286 285 287 299 309 317 325 315 309 312 313 292 292 292 285 272 267 266 265
335 346 345 346 328 338 347 359 28 39 323 266 219 219 193 183 185 192 212 227 244 252 264 260 272 273 276 285 288 291 296 298 302 307 316 310 298 283 284 287 279 268 265
276 305 311 323 321 334 347 359 330 329 278 285 227 218 205 197 205 222 223 247 261 273 244 258 270 275 279 280 279 282 285 286 290 290 292 295 297 296 286 281 283 279 272
270 285 301 307 318 321 358 0 358 285 329 333 190 204 202 213 222 207 232 269 289 277 261 263 271 275 278 278 281 278 277 280 283 283 284 289 289 291 292 284 280 277 276
266 274 298 285 297 316 268 325 12 24 16 80 95 182 214 222 224 226 241 281 291 292 270 271 276 280 284 282 282 281 279 279 282 282 281 277 282 282 283 283 282 281 273
263 264 279 270 271 281 261 231 233 73 88 62 260 221 237 248 237 244 257 274 285 273 284 282 280 282 282 282 280 279 278 277 278 279 276 275 277 275 274 280 282 280 276
256 246 246 257 268 281 273 238 236 225 252 324 332 243 276 258 264 253 262 273 260 289 289 289 283 281 283 286 288 287 284 283 282 279 278 274 273 271 272 276 277 278 275
245 232 232 246 265 274 261 253 240 242 250 263 292 281 276 271 286 290 289 287 290 291 288 289 295 293 293 290 288 286 285 284 282 280 279 277 276 274 273 273 273 275 273
246 237 242 246 260 274 261 248 245 248 261 269 284 287 290 287 283 275 289 286 295 291 289 288 292 290 289 286 285 282 282 280 279 278 277 275 274 274 274 274 274 275 273
249 246 254 255 254 256 264 254 240 247 268 285 289 288 293 287 289 278 279 285 286 283 291 291 292 290 292 290 292 294 293 291 288 284 282 280 279 277 275 272 270 269 268
253 252 254 255 250 246 251 242 236 259 267 280 288 288 288 288 280 277 272 275 280 292 288 290 286 290 294 303 307 304 300 297 295 294 291 289 286 283 279 277 275 272 268
264 252 252 253 242 236 242 242 251 264 277 275 280 289 284 283 283 280 276 277 283 284 288 283 286 301 309 312 312 307 306 305 301 299 295 292 290 287 284 281 277 274 271
259 260 248 251 244 241 236 243 265 273 281 278 277 281 282 279 283 277 271 270 274 285 290 283 280 291 310 316 314 309 307 307 307 305 301 299 296 293 287 281 278 276 273
265 263 254 251 247 243 239 252 269 271 271 272 280 281 280 282 279 273 267 266 267 269 277 286 279 288 303 313 315 312 313 313 315 314 311 306 301 292 289 285 279 276 272
266 257 254 247 247 248 249 262 270 274 272 276 284 280 282 278 270 266 265 265 265 264 272 282 281 292 301 313 316 309 311 312 313 315 316 310 303 295 289 283 277 275 272
261 250 249 253 256 255 260 270 275 272 273 279 282 283 280 275 272 266 264 265 264 264 269 277 282 288 294 310 312 312 313 309 308 311 322 319 313 306 298 292 284 278 271
258 249 249 252 260 266 267 274 271 274 283 286 288 283 283 280 279 267 269 264 268 269 269 270 279 285 295 305 310 311 312 308 313 310 322 318 315 314 314 308 296 280 266
252 254 249 252 259 270 272 271 270 269 282 288 283 283 285 289 291 286 276 270 270 268 271 270 274 281 288 298 301 306 309 305 305 307 317 316 322 318 315 309 298 287 267
244 246 251 268 272 277 279 281 272 274 286 284 278 278 287 294 300 299 293 282 274 271 269 267 272 280 286 297 295 299 299 303 303 306 308 308 315 322 312 310 311 301 271
266 263 257 266 274 279 291 289 278 282 286 286 287 281 287 292 296 298 300 300 288 275 269 265 272 276 286 298 300 297 299 304 306 312 309 310 316 315 311 304 298 291 280
271 283 267 284 280 285 287 278 271 270 273 283 286 286 288 291 295 295 297 301 294 283 273 267 269 277 287 297 298 302 301 299 299 303 307 302 316 306 310 312 311 299 284
288 279 281 284 282 281 283 273 266 268 274 281 285 289 291 294 296 294 293 300 301 295 287 277 277 285 288 295 301 299 303 304 304 305 304 299 316 305 313 314 314 312 298
310 305 301 296 294 294 292 288 281 280 283 287 291 292 294 295 293 293 286 292 297 298 294 286 286 284 287 296 301 306 308 302 301 304 311 301 314 318 321 325 332 322 304
317 315 316 318 314 312 307 295 290 284 285 290 295 298 293 289 292 291 284 291 293 298 287 275 266 268 276 292 296 305 311 303 304 309 309 316 315 324 320 322 327 329 321
Wind_Speed_850mb
5 7 9 13 13 10 15 20 7 3 4 2 6 6 20 20 21 16 13 12 8 6 5 3 7 12 12 13 16 16 14 11 11 14 17 21 27 31 35 39 43 45 47
8 9 11 13 13 14 19 20 6 5 2 5 3 7 18 18 16 15 11 9 9 9 5 7 14 14 13 15 15 17 14 12 10 14 16 18 22 25 30 33 36 38 42
11 12 13 16 15 17 19 18 5 4 5 4 6 5 8 15 16 14 9 8 5 4 10 12 16 13 12 13 13 14 14 15 19 21 21 24 23 23 24 29 32 35 38
7 13 14 15 14 18 16 14 3 2 2 2 10 8 11 14 14 10 9 9 9 10 12 12 11 11 13 13 15 18 20 21 23 24 23 24 25 27 25 25 27 32 35
8 9 11 10 9 14 12 12 3 2 2 5 7 14 16 15 13 12 12 10 8 10 14 16 19 20 22 24 26 27 28 28 29 30 30 30 28 29 31 31 30 30 32
15 13 12 10 9 7 6 6 9 2 3 3 2 17 19 17 17 15 8 6 11 16 23 27 28 30 32 34 34 36 37 38 38 39 38 40 39 34 32 33 35 35 37
17 14 13 10 7 5 4 1 5 4 6 3 3 6 19 20 21 22 18 16 19 26 26 28 32 38 40 41 41 42 42 44 46 46 45 46 45 45 41 38 35 36 41
19 14 12 10 7 6 5 6 2 2 3 4 1 6 6 11 23 24 26 29 27 23 22 33 39 41 42 42 43 44 47 50 51 52 52 48 48 49 49 47 45 44 43
22 18 13 11 9 8 9 8 5 4 1 3 3 2 6 8 10 20 24 21 24 24 29 26 26 28 31 32 35 38 41 42 44 47 49 52 54 53 55 57 56 52 49
19 20 18 15 12 12 12 11 10 9 6 6 9 10 13 14 13 18 17 20 28 23 20 16 21 28 34 37 39 40 43 45 47 49 51 55 57 58 60 60 61 63 59
22 22 22 21 18 16 16 16 13 12 11 11 13 16 18 21 24 26 32 21 24 18 20 23 29 33 39 39 40 43 46 51 55 57 60 62 64 66 67 67 64 59 60
23 23 24 27 26 21 18 16 15 12 14 16 20 23 24 23 25 25 31 32 29 28 25 28 24 24 31 34 37 40 42 46 48 52 55 59 63 66 69 71 73 73 65
26 26 27 27 30 28 23 22 20 23 25 25 31 31 33 33 32 31 35 36 37 32 24 24 20 22 26 34 38 40 42 43 45 48 50 52 55 60 65 69 73 75 73
31 28 28 26 29 32 31 29 27 28 33 34 30 38 41 39 39 40 40 37 34 32 29 24 21 22 29 38 44 46 47 47 48 50 52 55 56 58 62 66 70 75 79
35 37 30 29 28 29 31 30 31 35 38 35 38 40 41 39 43 43 39 40 31 38 35 25 18 25 35 44 49 49 47 47 47 48 52 57 61 63 66 69 71 73 75
36 34 33 32 32 32 34 36 35 38 39 39 40 39 39 43 43 40 38 37 34 34 41 29 28 34 44 48 49 45 43 48 51 52 53 59 62 63 64 70 73 77 79
34 37 34 33 34 34 41 40 40 40 41 39 39 42 45 42 39 36 38 33 32 32 41 39 37 37 49 49 48 47 50 53 52 59 55 57 57 57 64 71 79 82 82
34 34 34 36 39 39 40 40 43 39 39 38 41 43 39 37 37 39 38 38 34 36 41 47 41 42 44 50 50 53 54 53 58 58 59 64 58 60 62 68 71 79 80
28 32 32 36 32 34 40 43 40 40 39 43 40 35 33 33 34 33 39 37 36 39 43 48 52 45 49 52 51 52 56 59 53 55 62 63 60 64 72 75 71 66 66
22 22 27 33 37 39 41 39 40 38 35 38 34 29 27 28 29 32 35 39 41 43 43 46 47 45 42 43 46 47 51 50 54 53 57 56 64 74 68 63 55 57 56
24 27 28 30 40 44 38 33 37 37 38 36 30 26 28 28 29 32 36 37 41 43 43 45 47 43 44 41 45 47 52 54 56 53 42 47 66 70 51 50 46 39 39
41 31 36 39 38 37 33 34 35 38 36 33 33 35 37 38 38 41 42 46 48 50 46 45 46 46 49 45 45 47 51 54 60 48 41 64 58 56 44 41 40 30 35
25 26 32 34 24 31 32 32 34 38 37 38 39 41 43 45 47 48 50 50 48 47 47 46 51 53 50 55 48 56 50 53 58 58 47 62 51 45 42 40 38 38 44
11 18 23 27 32 34 33 33 35 41 45 44 43 46 53 55 55 52 54 53 49 47 44 46 53 56 54 50 55 51 53 61 57 50 38 62 42 46 47 47 40 44 46
20 21 25 31 36 37 34 33 36 45 49 50 51 54 57 55 54 51 57 57 51 50 36 40 43 48 48 50 46 46 44 43 52 51 45 40 44 62 61 50 43 52 48
24 24 28 29 31 35 30 31 35 43 53 56 59 56 48 48 50 54 58 59 60 56 51 51 49 51 49 48 42 47 46 39 44 41 26 47 61 57 54 67 56 42 37
Wind_Direction_850mb
52 21 7 8 1 354 344 344 337 240 240 282 357 122 168 169 178 172 172 198 227 242 251 294 308 321 324 316 329 327 317 299 297 294 288 285 277 270 265 261 259 257 255
36 18 22 12 7 3 355 359 42 113 177 194 149 103 172 169 177 189 190 208 255 261 244 263 288 294 308 313 318 322 332 322 302 308 302 297 290 281 274 270 267 265 263
11 5 4 4 353 347 350 356 35 73 58 202 199 178 164 183 180 181 185 196 239 240 233 262 286 285 287 299 309 317 325 315 309 312 313 292 292 292 285 272 267 266 265
335 346 345 346 328 338 347 359 28 39 323 266 219 219 193 183 185 192 212 227 244 252 264 260 272 273 276 285 288 291 296 298 302 307 316 310 298 283 284 287 279 268 265
276 305 311 323 321 334 347 359 330 329 278 285 227 218 205 197 205 222 223 247 261 273 244 258 270 275 279 280 279 282 285 286 290 290 292 295 297 296 286 281 283 279 272
270 285 301 307 318 321 358 0 358 285 329 333 190 204 202 213 222 207 232 269 289 277 261 263 271 275 278 278 281 278 277 280 283 283 284 289 289 291 292 284 280 277 276
266 274 298 285 297 316 268 325 12 24 16 80 95 182 214 222 224 226 241 281 291 292 270 271 276 280 284 282 282 281 279 279 282 282 281 277 282 282 283 283 282 281 273
263 264 279 270 271 281 261 231 233 73 88 62 260 221 237 248 237 244 257 274 285 273 284 282 280 282 282 282 280 279 278 277 278 279 276 275 277 275 274 280 282 280 276
256 246 246 257 268 281 273 238 236 225 252 324 332 243 276 258 264 253 262 273 260 289 289 289 283 281 283 286 288 287 284 283 282 279 278 274 273 271 272 276 277 278 275
245 232 232 246 265 274 261 253 240 242 250 263 292 281 276 271 286 290 289 287 290 291 288 289 295 293 293 290 288 286 285 284 282 280 279 277 276 274 273 273 273 275 273
246 237 242 246 260 274 261 248 245 248 261 269 284 287 290 287 283 275 289 286 295 291 289 288 292 290 289 286 285 282 282 280 279 278 277 275 274 274 274 274 274 275 273
249 246 254 255 254 256 264 254 240 247 268 285 289 288 293 287 289 278 279 285 286 283 291 291 292 290 292 290 292 294 293 291 288 284 282 280 279 277 275 272 270 269 268
253 252 254 255 250 246 251 242 236 259 267 280 288 288 288 288 280 277 272 275 280 292 288 290 286 290 294 303 307 304 300 297 295 294 291 289 286 283 279 277 275 272 268
264 252 252 253 242 236 242 242 251 264 277 275 280 289 284 283 283 280 276 277 283 284 288 283 286 301 309 312 312 307 306 305 301 299 295 292 290 287 284 281 277 274 271
259 260 248 251 244 241 236 243 265 273 281 278 277 281 282 279 283 277 271 270 274 285 290 283 280 291 310 316 314 309 307 307 307 305 301 299 296 293 287 281 278 276 273
265 263 254 251 247 243 239 252 269 271 271 272 280 281 280 282 279 273 267 266 267 269 277 286 279 288 303 313 315 312 313 313 315 314 311 306 301 292 289 285 279 276 272
266 257 254 247 247 248 249 262 270 274 272 276 284 280 282 278 270 266 265 265 265 264 272 282 281 292 301 313 316 309 311 312 313 315 316 310 303 295 289 283 277 275 272
261 250 249 253 256 255 260 270 275 272 273 279 282 283 280 275 272 266 264 265 264 264 269 277 282 288 294 310 312 312 313 309 308 311 322 319 313 306 298 292 284 278 271
258 249 249 252 260 266 267 274 271 274 283 286 288 283 283 280 279 267 269 264 268 269 269 270 279 285 295 305 310 311 312 308 313 310 322 318 315 314 314 308 296 280 266
252 254 249 252 259 270 272 271 270 269 282 288 283 283 285 289 291 286 276 270 270 268 271 270 274 281 288 298 301 306 309 305 305 307 317 316 322 318 315 309 298 287 267
244 246 251 268 272 277 279 281 272 274 286 284 278 278 287 294 300 299 293 282 274 271 269 267 272 280 286 297 295 299 299 303 303 306 308 308 315 322 312 310 311 301 271
266 263 257 266 274 279 291 289 278 282 286 286 287 281 287 292 296 298 300 300 288 275 269 265 272 276 286 298 300 297 299 304 306 312 309 310 316 315 311 304 298 291 280
271 283 267 284 280 285 287 278 271 270 273 283 286 286 288 291 295 295 297 301 294 283 273 267 269 277 287 297 298 302 301 299 299 303 307 302 316 306 310 312 311 299 284
288 279 281 284 282 281 283 273 266 268 274 281 285 289 291 294 296 294 293 300 301 295 287 277 277 285 288 295 301 299 303 304 304 305 304 299 316 305 313 314 314 312 298
310 305 301 296 294 294 292 288 281 280 283 287 291 292 294 295 293 293 286 292 297 298 294 286 286 284 287 296 301 306 308 302 301 304 311 301 314 318 321 325 332 322 304
317 315 316 318 314 312 307 295 290 284 285 290 295 298 293 289 292 291 284 291 293 298 287 275 266 268 276 292 296 305 311 303 304 309 309 316 315 324 320 322 327 329 321